Location: Bois de la Silve
(44.4667°N, 6.7833°E)
Time: 20:14:44
(UTC+00:00)

CZ-4 R/B - Visible Passes

Search period start: 18 June 2021 00:00
Search period end: 28 June 2021 00:00
Orbit: 680 x 753 km, 98.5° (Epoch: 18 June)

Date Brightness Start Highest point End Pass type
(mag) Time Alt. Az. Time Alt. Az. Time Alt. Az.
18 Jun 3.8 00:50:57 10° N 00:55:36 70° WNW 00:57:08 41° SW visible
19 Jun 4.6 00:00:24 10° NNE 00:04:45 37° E 00:05:45 33° SE visible
19 Jun 5.2 01:38:47 10° N 01:42:35 25° WNW 01:44:56 17° WSW visible
19 Jun 6.0 23:11:40 10° ENE 23:13:31 12° E 23:14:22 12° E visible
20 Jun 3.8 00:47:23 10° N 00:52:03 76° WNW 00:53:33 43° SSW visible
20 Jun 4.8 23:56:54 10° NNE 00:01:10 34° E 00:02:10 31° ESE visible
21 Jun 5.1 01:35:08 10° N 01:39:04 27° WNW 01:41:21 19° WSW visible
21 Jun 6.1 23:08:35 10° ENE 23:09:56 11° E 23:10:47 11° E visible
22 Jun 3.7 00:43:49 10° NNE 00:48:31 82° WNW 00:49:58 45° SSW visible
22 Jun 6.1 02:24:36 10° NW 02:25:45 11° WNW 02:26:55 10° WNW visible
22 Jun 4.9 23:53:24 10° NNE 23:57:36 32° E 23:58:35 29° ESE visible
23 Jun 5.0 01:31:30 10° N 01:35:33 30° WNW 01:37:46 20° WSW visible
23 Jun 6.2 23:05:58 10° E 23:06:19 10° E 23:06:41 10° E visible
24 Jun 3.7 00:40:15 10° NNE 00:44:57 89° WNW 00:46:23 46° SSW visible
24 Jun 6.1 02:20:35 10° NW 02:22:16 12° WNW 02:23:57 10° W visible
24 Jun 5.0 23:49:55 10° NE 23:54:02 29° E 23:54:59 27° ESE visible
25 Jun 4.9 01:27:52 10° N 01:32:01 32° WNW 01:34:10 22° WSW visible
26 Jun 3.7 00:36:41 10° NNE 00:41:25 84° ESE 00:42:47 47° S visible
26 Jun 6.0 02:16:42 10° NNW 02:18:46 13° WNW 02:20:51 10° W visible
26 Jun 5.1 23:46:26 10° NE 23:50:27 27° E 23:51:23 25° ESE visible
27 Jun 4.8 01:24:15 10° N 01:28:30 35° WNW 01:30:35 24° WSW visible
